Location: Bismarck
(46.7731°N, 100.8200°W)
Time: 14:04:48
(UTC-06:00)

ISS - Pass Details

Date: 26 November 2017
Orbit: 402 x 407 km, 51.6° (Epoch: 13 December)

Event Time Altitude Azimuth Distance (km) Brightness Sun altitude
Rises 02:22:06 0° 290° (WNW) 2,325 - -55.7°
Reaches altitude 10° 02:24:24 10° 277° (W) 1,460 - -55.4°
Maximum altitude 02:27:09 25° 220° (SW) 864 - -55.0°
Drops below altitude 10° 02:29:52 10° 163° (SSE) 1,450 - -54.7°
Sets 02:32:09 0° 149° (SSE) 2,305 - -54.4°
